Location: ?????????
(41.1143°N, 22.7905°E)
Time: 02:36:52
(UTC+00:00)

IRAS Rocket - Pass Details

Date: 13 December 2025
Orbit: 846 x 875 km, 100.1° (Epoch: 12 January)

Event Time Altitude Azimuth Distance (km) Brightness Sun altitude
Rises 17:09:23 0° 163° (SSE) 3,402 7.3 -23.4°
Reaches altitude 10° 17:11:44 10° 163° (SSE) 2,467 6.6 -23.9°
Maximum altitude 17:17:13 89° 251° (WSW) 853 4.1 -24.9°
Drops below altitude 10° 17:22:43 10° 344° (NNW) 2,476 6.7 -25.9°
Sets 17:25:05 0° 345° (NNW) 3,415 7.4 -26.3°
